Terug naar catalogus

COSMOS 839 DEB

ActiefUNKNOWN
NORAD 10438·DEBRIS·🇷🇺 Russia

Gelanceerd Jul 8, 1976 vanaf Plesetsk Cosmodrome

Loading…

Volgende Passages (komende 24 uur)

TLE

VersSource: Space-Track

Epoch: Sep 13, 2026, 12:17 UTC

1 10438U 76067P   26256.51204330 -.00000385  00000-0 -19455-2 0  9995
2 10438  65.9607  48.2262 0646188 349.6954  67.6689 12.09756425214323

Volg COSMOS 839 DEB in realtime met AllMySat

Download on the App Store